sat.trackr.live / text

‹ back to catalog

STARLINK-2571

NORAD 48401 · 2021-038BA

PAYLOAD ACTIVE UNKNOWN

§ Identity

Operator
Country
US
Launch date
2021-05-04
Launch site
AFETR
Launch vehicle
Mass (kg)
RCS (m²)

Purposes: comms

External: N2YO · Heavens-Above · Gunter

§ Orbital elements

Epoch: 2026-05-24T19:13:50.039040Z

Period
94.01 min
Inclination
53.1604°
Eccentricity
0.0001243
Mean motion
15.31710408 rev/d
Perigee alt
469.9 km
Apogee alt
471.6 km
Semi-major
6,848.8 km
B*
3.0925e-5
RAAN
338.9007°
Arg perigee
80.6325°
Mean anomaly
279.4817°
Rev number
27,909

§ Raw data

STARLINK-25711 48401U 21038BA  26144.80127360  .00000595  00000+0  30925-4 0  99962 48401  53.1604 338.9007 0001243  80.6325 279.4817 15.31710408279097

JSON: /api/v1/satellites/48401 · /tle

For live sub-satellite position, see the globe view (requires WebGL).

§ Visibility from observer

Set your observer location to see the next 7 days of passes ≥ 10°. The values pass through the URL so the page stays shareable.

No JS? Fill the form by hand. The geolocation button needs JavaScript.